Time,TemperatureF,DewpointF,PressureIn,WindDirection,WindDirectionDegrees,WindSpeedMPH,WindSpeedGustMPH,Humidity,HourlyPrecipIn,Conditions,Clouds,dailyrainin,SoftwareType,DateUTC
2013-08-26 00:05:00,76.0,72.0,30.16,NE,53,3.0,5.0,86,-99.99,,,-99.99,,2013-08-26 04:05:00,
2013-08-26 00:24:00,76.0,72.0,30.16,NE,34,4.0,7.0,86,-99.99,,,-99.99,,2013-08-26 04:24:00,
2013-08-26 00:53:00,76.0,72.0,30.16,ENE,57,4.0,7.0,86,-99.99,,,-99.99,,2013-08-26 04:53:00,
2013-08-26 01:13:00,76.0,72.0,30.15,NE,44,5.0,7.0,87,-99.99,,,-99.99,,2013-08-26 05:13:00,
2013-08-26 01:52:00,76.0,72.0,30.14,NNE,28,6.0,9.0,86,-99.99,,,-99.99,,2013-08-26 05:52:00,
2013-08-26 02:22:00,76.0,72.0,30.13,NNE,18,6.0,8.0,88,-99.99,,,-99.99,,2013-08-26 06:22:00,
2013-08-26 02:52:00,75.0,72.0,30.12,NNW,336,4.0,5.0,89,-99.99,,,-99.99,,2013-08-26 06:52:00,
2013-08-26 03:02:00,75.0,72.0,30.12,NNW,336,4.0,5.0,89,-99.99,,,-99.99,,2013-08-26 07:02:00,
2013-08-26 03:22:00,75.0,72.0,30.11,SSE,168,5.0,7.0,90,-99.99,,,-99.99,,2013-08-26 07:22:00,
2013-08-26 03:42:00,76.0,72.0,30.11,SSW,200,5.0,7.0,89,-99.99,,,-99.99,,2013-08-26 07:42:00,
2013-08-26 03:52:00,75.0,72.0,30.11,SE,133,5.0,7.0,90,-99.99,,,-99.99,,2013-08-26 07:52:00,
2013-08-26 04:02:00,75.0,72.0,30.11,SE,133,5.0,7.0,90,-99.99,,,-99.99,,2013-08-26 08:02:00,
2013-08-26 04:52:00,75.0,72.0,30.10,East,87,3.0,5.0,90,-99.99,,,-99.99,,2013-08-26 08:52:00,
2013-08-26 05:22:00,74.0,72.0,30.10,NNE,31,4.0,6.0,91,-99.99,,,-99.99,,2013-08-26 09:22:00,
2013-08-26 05:33:00,74.0,72.0,30.10,NNE,31,4.0,6.0,91,-99.99,,,-99.99,,2013-08-26 09:33:00,
2013-08-26 05:54:00,75.0,72.0,30.10,NNE,24,5.0,7.0,91,-99.99,,,-99.99,,2013-08-26 09:54:00,
2013-08-26 06:23:00,75.0,72.0,30.10,NNE,33,4.0,6.0,91,-99.99,,,-99.99,,2013-08-26 10:23:00,
2013-08-26 06:52:00,75.0,72.0,30.11,NNE,20,3.0,4.0,91,-99.99,,,-99.99,,2013-08-26 10:52:00,
2013-08-26 07:22:00,74.0,71.0,30.11,NE,43,3.0,4.0,91,-99.99,,,-99.99,,2013-08-26 11:22:00,
2013-08-26 07:52:00,74.0,72.0,30.11,SSE,168,4.0,6.0,92,-99.99,,,-99.99,,2013-08-26 11:52:00,
2013-08-26 08:12:00,74.0,72.0,30.11,SSE,147,3.0,5.0,92,-99.99,,,-99.99,,2013-08-26 12:12:00,
2013-08-26 08:22:00,75.0,73.0,30.11,West,275,3.0,5.0,92,-99.99,,,-99.99,,2013-08-26 12:22:00,
2013-08-26 08:52:00,77.0,74.0,30.11,South,189,3.0,4.0,90,-99.99,,,-99.99,,2013-08-26 12:52:00,
2013-08-26 09:12:00,77.0,74.0,30.12,South,176,4.0,5.0,88,-99.99,,,-99.99,,2013-08-26 13:12:00,
2013-08-26 09:42:00,78.0,74.0,30.13,WSW,254,5.0,7.0,85,-99.99,,,-99.99,,2013-08-26 13:42:00,
2013-08-26 10:22:00,82.0,74.0,30.14,ENE,57,4.0,8.0,76,-99.99,,,-99.99,,2013-08-26 14:22:00,
2013-08-26 10:52:00,83.0,74.0,30.13,NE,56,6.0,11.0,74,-99.99,,,-99.99,,2013-08-26 14:52:00,
2013-08-26 11:12:00,83.0,73.0,30.14,NE,34,7.0,10.0,71,-99.99,,,-99.99,,2013-08-26 15:12:00,
2013-08-26 11:59:00,84.0,73.0,30.13,South,181,7.0,12.0,70,-99.99,,,-99.99,,2013-08-26 15:59:00,
2013-08-26 12:17:00,85.0,73.0,30.13,SE,145,7.0,11.0,66,-99.99,,,-99.99,,2013-08-26 16:17:00,
2013-08-26 12:29:00,85.0,73.0,30.13,SE,138,6.0,10.0,66,-99.99,,,-99.99,,2013-08-26 16:29:00,
2013-08-26 12:48:00,85.0,72.0,30.13,SW,223,6.0,10.0,64,-99.99,,,-99.99,,2013-08-26 16:48:00,
2013-08-26 12:59:00,86.0,72.0,30.12,NE,39,5.0,10.0,62,-99.99,,,-99.99,,2013-08-26 16:59:00,
2013-08-26 13:06:00,86.0,72.0,30.12,NE,39,5.0,10.0,62,-99.99,,,-99.99,,2013-08-26 17:06:00,
2013-08-26 13:24:00,85.0,72.0,30.12,NE,48,6.0,10.0,65,-99.99,,,-99.99,,2013-08-26 17:24:00,
2013-08-26 13:37:00,85.0,72.0,30.12,NE,48,6.0,10.0,65,-99.99,,,-99.99,,2013-08-26 17:37:00,
2013-08-26 13:53:00,85.0,71.0,30.10,East,87,8.0,13.0,63,-99.99,,,-99.99,,2013-08-26 17:53:00,
2013-08-26 14:02:00,85.0,71.0,30.10,East,87,8.0,13.0,63,-99.99,,,-99.99,,2013-08-26 18:02:00,
2013-08-26 14:22:00,83.0,72.0,30.11,NE,42,10.0,15.0,70,-99.99,,,-99.99,,2013-08-26 18:22:00,
2013-08-26 14:32:00,83.0,72.0,30.11,NE,42,10.0,15.0,70,-99.99,,,-99.99,,2013-08-26 18:32:00,
2013-08-26 15:22:00,85.0,72.0,30.09,WNW,295,8.0,12.0,64,-99.99,,,-99.99,,2013-08-26 19:22:00,
2013-08-26 15:42:00,86.0,72.0,30.08,West,267,6.0,9.0,63,-99.99,,,-99.99,,2013-08-26 19:42:00,
2013-08-26 15:52:00,86.0,72.0,30.08,WSW,242,8.0,12.0,61,-99.99,,,-99.99,,2013-08-26 19:52:00,
2013-08-26 16:11:00,86.0,71.0,30.07,NW,317,8.0,12.0,61,-99.99,,,-99.99,,2013-08-26 20:11:00,
2013-08-26 16:52:00,84.0,74.0,30.05,SSW,200,9.0,13.0,69,-99.99,,,-99.99,,2013-08-26 20:52:00,
2013-08-26 17:22:00,83.0,74.0,30.04,NNE,33,9.0,14.0,74,-99.99,,,-99.99,,2013-08-26 21:22:00,
2013-08-26 17:55:00,85.0,71.0,30.04,NE,48,7.0,11.0,62,-99.99,,,-99.99,,2013-08-26 21:55:00,
2013-08-26 18:16:00,86.0,71.0,30.04,NE,34,8.0,12.0,60,-99.99,,,-99.99,,2013-08-26 22:16:00,
2013-08-26 18:53:00,86.0,72.0,30.04,ENE,76,10.0,17.0,62,-99.99,,,-99.99,,2013-08-26 22:53:00,
2013-08-26 19:13:00,84.0,71.0,30.04,East,88,8.0,14.0,64,-99.99,,,-99.99,,2013-08-26 23:13:00,
2013-08-26 19:22:00,84.0,70.0,30.04,ENE,74,8.0,19.0,64,-99.99,,,-99.99,,2013-08-26 23:22:00,
2013-08-26 19:34:00,84.0,70.0,30.04,ENE,74,8.0,19.0,64,-99.99,,,-99.99,,2013-08-26 23:34:00,
2013-08-26 19:52:00,83.0,70.0,30.05,East,84,8.0,13.0,65,-99.99,,,-99.99,,2013-08-26 23:52:00,
2013-08-26 20:11:00,82.0,71.0,30.05,East,87,8.0,12.0,67,-99.99,,,-99.99,,2013-08-27 00:11:00,
2013-08-26 20:52:00,80.0,72.0,30.07,East,90,4.0,6.0,76,-99.99,,,-99.99,,2013-08-27 00:52:00,
2013-08-26 21:02:00,80.0,72.0,30.07,East,90,4.0,6.0,76,-99.99,,,-99.99,,2013-08-27 01:02:00,
2013-08-26 21:52:00,78.0,72.0,30.08,ESE,104,2.0,3.0,79,-99.99,,,-99.99,,2013-08-27 01:52:00,
2013-08-26 22:02:00,78.0,72.0,30.08,ESE,104,2.0,3.0,79,-99.99,,,-99.99,,2013-08-27 02:02:00,
2013-08-26 22:22:00,78.0,73.0,30.08,East,96,2.0,3.0,82,-99.99,,,-99.99,,2013-08-27 02:22:00,
2013-08-26 22:52:00,78.0,72.0,30.08,NE,48,9.0,19.0,84,-99.99,,,-99.99,,2013-08-27 02:52:00,
2013-08-26 23:58:00,74.0,71.0,30.09,ESE,106,3.0,4.0,91,-99.99,,,-99.99,,2013-08-27 03:58:00,